User: anonymous   Login
Location: Chenereilles
(45.4866°N, 4.0790°E)
Time: 21:54:26
(UTC+00:00)
Language:

CZ-4 R/B - Orbit

View from above orbital plane
View from above orbital plane
View from above satellite
View from above satellite

Ground track
Ground track

The orbit data is extracted from the following two-line orbital elements,

1 29507U 06046C   20027.12197472  .00000079  00000-0  11176-4 0  9999
2 29507  97.7457  49.4241 0046378 286.5871  73.0262 15.00471861724076
Epoch (UTC): 27 January 2020 02:55:38
Eccentricity: 0.0046378
inclination: 97.7457°
perigee height: 533 km
apogee height: 597 km
right ascension of ascending node: 49.4241°
argument of perigee: 286.5871°
revolutions per day: 15.00471861
mean anomaly at epoch: 73.0262°
orbit number at epoch: 72407

The dashed part of the orbit path shows where the satellite is in the earth's shadow,  

DLR